FW4263 Weather Reports


time (UTC)temp
F
wind
direction
speed
knots
gust
knots
rain 1hr
in
rain 24hr
in
rain mn
in
humidity
%
barometer
mb
20260510192500 84 112 0.9 1.7 0.00 0.00 0.00 59 1015.7
20260510192000 84 93 0.9 1.7 0.00 0.00 0.00 59 1015.7
20260510191459 84 74 0.9 1.7 0.00 0.00 0.00 60 1015.8
20260510191001 84 82 0.9 2.6 0.00 0.00 0.00 57 1015.9
20260510190459 84 45 0.0 2.6 0.00 0.00 0.00 61 1015.8
20260510190005 84 161 0.0 1.7 0.00 0.00 0.00 63 1016.1
20260510184504 83 158 0.9 2.6 0.00 0.00 0.00 57 1016.1
20260510184000 82 105 0.9 2.6 0.00 0.00 0.00 58 1016.0
20260510183501 81 336 0.9 1.7 0.00 0.00 0.00 56 1016.1
20260510183000 81 43 0.0 1.7 0.00 0.00 0.00 58 1015.9
20260510182502 81 40 0.0 1.7 0.00 0.00 0.00 64 1015.9
20260510182002 81 40 0.0 0.9 0.00 0.00 0.00 66 1015.9
20260510181002 80 41 0.9 1.7 0.00 0.00 0.00 64 1015.9
20260510180001 79 81 0.9 2.6 0.00 0.00 0.00 69 1016.0
20260510175001 81 80 0.0 1.7 0.00 0.00 0.00 65 1016.0
20260510174459 81 80 0.9 1.7 0.00 0.00 0.00 68 1016.0
20260510173959 81 80 0.9 2.6 0.00 0.00 0.00 63 1016.1
20260510173000 80 140 0.9 1.7 0.00 0.00 0.00 64 1016.1
20260510172459 79 138 0.9 2.6 0.00 0.00 0.00 62 1016.2
20260510171959 79 138 0.9 2.6 0.00 0.00 0.00 69 1016.1
20260510171502 79 127 0.9 1.7 0.00 0.00 0.00 66 1016.2
20260510171000 80 127 0.9 3.5 0.00 0.00 0.00 68 1016.2
20260510170500 80 57 0.0 1.7 0.00 0.00 0.00 71 1016.3
20260510170002 79 61 0.0 1.7 0.00 0.00 0.00 68 1016.3
20260510165459 79 47 0.0 0.9 0.00 0.00 0.00 69 1016.4
20260510163959 79 30 0.9 2.6 0.00 0.00 0.00 72 1016.5
20260510163501 79 146 0.9 1.7 0.00 0.00 0.00 69 1016.4
20260510163001 79 32 0.9 1.7 0.00 0.00 0.00 75 1016.6
20260510162459 78 32 0.9 1.7 0.00 0.00 0.00 76 1016.6
20260510161959 78 32 0.9 1.7 0.00 0.00 0.00 73 1016.6
20260510161459 78 31 0.9 1.7 0.00 0.00 0.00 73 1016.7
20260510160959 78 119 0.9 1.7 0.00 0.00 0.00 73 1016.7
20260510160500 77 134 0.0 1.7 0.00 0.00 0.00 78 1016.6
20260510160004 77 136 0.0 1.7 0.00 0.00 0.00 78 1016.6
20260510155501 76 131 0.9 2.6 0.00 0.00 0.00 77 1016.5
20260510155001 76 131 0.9 2.6 0.00 0.00 0.00 80 1016.4
20260510154501 76 171 0.9 1.7 0.00 0.00 0.00 78 1016.4
20260510153959 76 169 0.9 1.7 0.00 0.00 0.00 79 1016.4
20260510153501 75 169 0.9 1.7 0.00 0.00 0.00 79 1016.2
20260510153000 75 167 0.9 2.6 0.00 0.00 0.00 78 1016.4
20260510152459 76 167 0.9 2.6 0.00 0.00 0.00 79 1016.3
20260510152000 75 174 0.9 1.7 0.00 0.00 0.00 78 1016.3
20260510151500 75 78 0.0 1.7 0.00 0.00 0.00 81 1016.3
20260510151002 74 206 0.0 1.7 0.00 0.00 0.00 81 1016.2
20260510150459 74 208 0.0 0.9 0.00 0.00 0.00 83 1016.3
20260510150002 73 208 0.0 0.9 0.00 0.00 0.00 84 1016.3
20260510145500 73 208 0.9 1.7 0.00 0.00 0.00 85 1016.1
20260510144959 72 208 0.9 1.7 0.00 0.00 0.00 85 1016.1
20260510144500 72 323 0.9 1.7 0.00 0.00 0.00 86 1016.1
20260510143959 72 323 0.0 1.7 0.00 0.00 0.00 88 1016.1
20260510143500 71 325 0.0 0.9 0.00 0.00 0.00 89 1016.3
20260510143000 71 325 0.0 1.7 0.00 0.00 0.00 89 1016.4
20260510141501 70 325 0.0 0.9 0.00 0.00 0.00 91 1016.3
20260510140459 69 337 0.0 1.7 0.00 0.00 0.00 92 1016.3
20260510140005 69 337 0.0 1.7 0.00 0.00 0.00 93 1016.2
20260510135000 68 327 0.0 0.0 0.00 0.00 0.00 95 1016.0
20260510134459 67 327 0.0 0.0 0.00 0.00 0.00 95 1016.0
20260510134000 67 327 0.0 0.0 0.00 0.00 0.00 95 1015.8
20260510133459 67 327 0.0 0.0 0.00 0.00 0.00 96 1015.9
20260510132959 66 327 0.0 0.0 0.00 0.00 0.00 95 1015.8
20260510132459 66 327 0.0 0.0 0.00 0.00 0.00 96 1015.9
20260510131959 65 327 0.0 0.0 0.00 0.00 0.00 96 1015.9
20260510131459 65 327 0.0 0.0 0.00 0.00 0.00 96 1015.9
20260510130959 65 327 0.0 0.0 0.00 0.00 0.00 96 1016.0
20260510130002 64 101 0.0 0.0 0.00 0.00 0.00 97 1015.9
20260510125459 64 101 0.0 0.0 0.00 0.00 0.00 97 1016.0
20260510124959 64 101 0.0 0.0 0.00 0.00 0.00 97 1015.9
20260510124459 63 101 0.0 0.0 0.00 0.00 0.00 97 1015.9
20260510124001 63 101 0.0 0.0 0.00 0.00 0.00 97 1015.7
20260510123000 62 101 0.0 0.0 0.00 0.00 0.00 97 1015.7
20260510122500 62 101 0.0 0.0 0.00 0.00 0.00 97 1015.7
20260510122000 61 101 0.0 0.0 0.00 0.00 0.00 97 1015.7
20260510121500 61 101 0.0 0.0 0.00 0.00 0.00 97 1015.6
20260510120959 61 101 0.0 0.0 0.00 0.00 0.00 97 1015.5
20260510120500 60 101 0.0 0.9 0.00 0.00 0.00 97 1015.5
20260510115500 60 318 0.0 0.0 0.00 0.00 0.00 97 1015.3
20260510115000 59 318 0.0 0.0 0.00 0.00 0.00 97 1015.4
20260510114501 59 318 0.0 0.0 0.00 0.00 0.00 96 1015.4
20260510113959 59 318 0.0 0.0 0.00 0.00 0.00 96 1015.4
20260510113459 58 318 0.0 0.0 0.00 0.00 0.00 96 1015.3
20260510112959 58 318 0.0 0.9 0.00 0.00 0.00 95 1015.1
20260510112500 58 318 0.0 0.9 0.00 0.00 0.00 95 1015.0
20260510111959 58 5 0.0 0.0 0.00 0.00 0.00 95 1014.9
20260510111459 58 5 0.0 0.0 0.00 0.00 0.00 95 1014.8
20260510110959 58 5 0.0 0.9 0.00 0.00 0.00 95 1014.7
20260510110500 58 5 0.0 0.9 0.00 0.00 0.00 95 1014.5
20260510110003 58 217 0.0 0.0 0.00 0.00 0.00 95 1014.5
20260510105459 58 217 0.0 0.0 0.00 0.00 0.00 95 1014.4
20260510105003 58 217 0.0 0.0 0.00 0.00 0.00 94 1014.3
20260510103959 58 309 0.0 0.0 0.00 0.00 0.00 94 1014.1
20260510102959 58 309 0.0 0.0 0.00 0.00 0.00 94 1013.9
20260510102000 58 309 0.0 0.0 0.00 0.00 0.00 93 1013.9
20260510101500 58 309 0.0 0.0 0.00 0.00 0.00 93 1013.9
20260510100959 58 309 0.0 0.0 0.00 0.00 0.00 92 1013.9
20260510100500 58 309 0.0 0.0 0.00 0.00 0.00 92 1013.9
20260510100003 58 309 0.0 0.0 0.00 0.00 0.00 92 1013.8
20260510095001 58 309 0.0 0.0 0.00 0.00 0.00 92 1013.6
20260510093959 57 309 0.0 0.0 0.00 0.00 0.00 91 1013.6
20260510093459 57 309 0.0 0.0 0.00 0.00 0.00 91 1013.6
20260510093001 57 309 0.0 0.0 0.00 0.00 0.00 91 1013.5
20260510092459 57 309 0.0 0.0 0.00 0.00 0.00 90 1013.6
20260510092000 57 309 0.0 0.0 0.00 0.00 0.00 90 1013.5
20260510091501 57 309 0.0 0.0 0.00 0.00 0.00 90 1013.5
20260510090959 57 309 0.0 0.0 0.00 0.00 0.00 89 1013.5
20260510090002 57 309 0.0 0.9 0.00 0.00 0.00 88 1013.4
20260510085459 57 309 0.9 0.9 0.00 0.00 0.00 88 1013.5
20260510085000 57 309 0.9 1.7 0.00 0.00 0.00 88 1013.5
20260510084500 57 309 0.0 1.7 0.00 0.00 0.00 88 1013.4
20260510083959 57 309 0.0 0.9 0.00 0.00 0.00 87 1013.5
20260510083459 56 309 0.0 0.0 0.00 0.00 0.00 88 1013.4
20260510083000 56 309 0.0 0.0 0.00 0.00 0.00 87 1013.4
20260510082500 56 309 0.0 0.0 0.00 0.00 0.00 88 1013.4
20260510080959 56 309 0.0 0.9 0.00 0.00 0.00 87 1013.2
20260510080500 56 309 0.0 0.9 0.00 0.00 0.00 87 1013.0
20260510080003 56 309 0.0 0.0 0.00 0.00 0.00 87 1012.9
20260510075459 56 309 0.0 0.0 0.00 0.00 0.00 87 1013.0
20260510075000 57 309 0.0 0.0 0.00 0.00 0.00 87 1013.1
20260510074459 57 309 0.0 0.0 0.00 0.00 0.00 88 1012.8
20260510073459 57 309 0.0 0.0 0.00 0.00 0.00 86 1012.8
20260510072959 57 309 0.0 0.0 0.00 0.00 0.00 85 1012.9
20260510072459 57 309 0.0 0.0 0.00 0.00 0.00 86 1013.0
20260510071959 57 309 0.0 0.9 0.00 0.00 0.00 87 1013.1
20260510071500 57 309 0.0 0.9 0.00 0.00 0.00 86 1013.2
20260510071000 57 309 0.0 0.9 0.00 0.00 0.00 87 1013.2
20260510070500 57 309 0.0 0.0 0.00 0.00 0.00 86 1013.2
20260510070003 57 309 0.0 0.0 0.00 0.00 0.00 87 1013.2
20260510065459 57 309 0.0 0.9 0.00 0.00 0.00 86 1013.3
20260510064959 57 309 0.0 0.9 0.00 0.00 0.00 86 1013.1
20260510064459 57 309 0.0 0.9 0.00 0.00 0.00 85 1013.3
20260510063959 58 309 0.0 0.0 0.00 0.00 0.00 86 1013.3
20260510063458 58 309 0.0 0.0 0.00 0.00 0.00 85 1013.1
20260510063000 58 309 0.0 0.0 0.00 0.00 0.00 85 1013.0
20260510062000 57 309 0.0 0.0 0.00 0.00 0.00 84 1012.8
20260510061000 58 309 0.0 0.9 0.00 0.00 0.00 84 1012.7
20260510060459 58 309 0.0 0.9 0.00 0.00 0.00 85 1012.7
20260510060003 58 309 0.0 0.0 0.00 0.00 0.00 83 1012.7
20260510055459 58 309 0.0 0.0 0.00 0.00 0.00 83 1012.7
20260510054959 58 309 0.0 0.0 0.00 0.00 0.00 84 1012.7
20260510053958 58 309 0.0 0.0 0.00 0.00 0.00 85 1012.7
20260510053458 58 309 0.0 0.0 0.00 0.00 0.00 85 1012.6
20260510052958 58 309 0.0 0.0 0.00 0.00 0.00 86 1012.6
20260510052459 58 309 0.0 0.0 0.00 0.00 0.00 84 1012.6
20260510051959 58 309 0.0 0.0 0.00 0.00 0.00 84 1012.6
20260510051500 58 309 0.0 0.0 0.00 0.00 0.00 84 1012.6
20260510051000 58 309 0.0 0.0 0.00 0.00 0.00 85 1012.6
20260510050459 59 309 0.0 0.0 0.00 0.00 0.00 84 1012.6
20260510045502 59 309 0.0 0.0 0.00 0.00 0.00 83 1012.6
20260510045002 59 309 0.0 0.9 0.00 0.00 0.00 84 1012.6
20260510044000 59 309 0.0 0.0 0.00 0.00 0.00 85 1012.5
20260510043503 59 309 0.0 0.0 0.00 0.00 0.00 85 1012.6
20260510043002 59 309 0.0 0.0 0.00 0.00 0.00 84 1012.5
20260510042000 59 309 0.0 0.0 0.00 0.00 0.00 83 1012.5
20260510041500 59 309 0.0 0.9 0.00 0.00 0.00 83 1012.5
20260510041000 59 309 0.0 0.9 0.00 0.00 0.00 82 1012.5
20260510040502 59 309 0.0 0.9 0.00 0.00 0.00 81 1012.4
20260510040005 60 309 0.0 0.9 0.00 0.00 0.00 82 1012.5
20260510035500 60 309 0.0 0.0 0.00 0.00 0.00 82 1012.5
20260510035002 60 309 0.0 0.0 0.00 0.00 0.00 82 1012.5
20260510034500 60 309 0.0 0.0 0.00 0.00 0.00 81 1012.6
20260510034001 60 309 0.0 0.0 0.00 0.00 0.00 80 1012.6
20260510032501 61 309 0.0 0.0 0.00 0.00 0.00 78 1012.6
20260510032002 61 309 0.0 0.9 0.00 0.00 0.00 79 1012.7
20260510031502 61 309 0.0 0.9 0.00 0.00 0.00 79 1012.6
20260510031000 61 309 0.0 0.9 0.00 0.00 0.00 77 1012.6
20260510030502 61 309 0.0 0.9 0.00 0.00 0.00 79 1012.6
20260510030003 62 309 0.0 0.9 0.00 0.00 0.00 77 1012.6
20260510025502 62 309 0.0 0.9 0.00 0.00 0.00 79 1012.5
20260510025001 62 309 0.0 0.9 0.00 0.00 0.00 77 1012.6
20260510024502 62 309 0.0 0.9 0.00 0.00 0.00 77 1012.5
20260510024001 63 309 0.0 0.9 0.00 0.00 0.00 77 1012.4
20260510023503 63 309 0.0 0.9 0.00 0.00 0.00 76 1012.4
20260510023004 63 309 0.0 0.0 0.00 0.00 0.00 76 1012.4
20260510021500 64 309 0.0 0.0 0.00 0.00 0.00 76 1012.2
20260510021002 64 309 0.0 0.0 0.00 0.00 0.00 71 1012.2
20260510020006 65 309 0.0 0.0 0.00 0.00 0.00 71 1012.0
20260510015501 65 309 0.0 0.0 0.00 0.00 0.00 73 1011.9
20260510014501 66 309 0.0 0.9 0.00 0.00 0.00 75 1011.8
20260510014001 66 309 0.0 0.9 0.00 0.00 0.00 73 1011.8
20260510013502 66 309 0.0 0.9 0.00 0.00 0.00 73 1011.7
20260510013002 67 309 0.0 0.0 0.00 0.00 0.00 72 1011.7
20260510012502 67 309 0.0 0.9 0.00 0.00 0.00 73 1011.7
20260510012001 68 309 0.0 0.9 0.00 0.00 0.00 72 1011.6
20260510011500 68 309 0.0 0.9 0.00 0.00 0.00 70 1011.5
20260510011000 69 309 0.0 0.9 0.00 0.00 0.00 70 1011.5
20260510010502 69 309 0.0 0.9 0.00 0.00 0.00 70 1011.4
20260510010006 70 309 0.0 0.9 0.00 0.00 0.00 67 1011.3
20260510005000 71 309 0.0 0.9 0.00 0.00 0.00 67 1011.2
20260510004502 71 309 0.0 0.9 0.00 0.00 0.00 66 1011.1
20260510004000 72 309 0.0 0.9 0.00 0.00 0.00 64 1011.0
20260510003002 73 140 0.0 0.9 0.00 0.00 0.00 62 1010.9
20260510002501 73 140 0.0 0.0 0.00 0.00 0.00 61 1010.8
20260510002001 73 140 0.0 0.0 0.00 0.00 0.00 60 1010.7
20260510001503 74 140 0.0 0.9 0.00 0.00 0.00 57 1010.7
20260510001000 74 140 0.0 0.9 0.00 0.00 0.00 58 1010.7
20260510000501 74 140 0.0 0.0 0.00 0.00 0.00 58 1010.6
20260510000005 75 140 0.0 0.0 0.00 0.00 0.00 56 1010.5
20260509235500 75 140 0.0 0.0 0.00 0.00 0.00 58 1010.5
20260509234500 76 163 0.0 0.9 0.00 0.00 0.00 55 1010.3
20260509234001 76 163 0.0 0.9 0.00 0.00 0.00 54 1010.3
20260509233501 76 163 0.0 0.9 0.00 0.00 0.00 53 1010.3
20260509233002 77 163 0.0 0.0 0.00 0.00 0.00 54 1010.3
20260509232502 77 163 0.0 0.0 0.00 0.00 0.00 51 1010.3
20260509232000 77 163 0.0 0.9 0.00 0.00 0.00 51 1010.2
20260509231500 77 163 0.0 0.9 0.00 0.00 0.00 48 1010.2
20260509231000 77 163 0.0 0.9 0.00 0.00 0.00 49 1010.2
20260509230500 78 163 0.0 0.9 0.00 0.00 0.00 49 1010.1
20260509230004 78 163 0.0 0.9 0.00 0.00 0.00 48 1010.0
20260509225502 78 163 0.0 0.9 0.00 0.00 0.00 43 1010.1
20260509225000 78 163 0.0 0.9 0.00 0.00 0.00 47 1010.1
20260509224502 78 163 0.0 0.9 0.00 0.00 0.00 45 1010.1
20260509224000 78 163 0.0 0.9 0.00 0.00 0.00 42 1010.0
20260509223500 78 163 0.0 1.7 0.00 0.00 0.00 45 1010.1
20260509223000 78 163 0.0 0.9 0.00 0.00 0.00 43 1010.1
20260509222500 78 163 0.0 0.9 0.00 0.00 0.00 47 1010.2
20260509222002 78 163 0.0 1.7 0.00 0.00 0.00 45 1010.2
20260509221502 79 163 0.0 0.9 0.00 0.00 0.00 43 1010.3
20260509220500 79 163 0.0 0.9 0.00 0.00 0.00 46 1010.2
20260509220003 79 163 0.0 0.9 0.00 0.00 0.00 44 1010.3
20260509215500 79 163 0.0 0.9 0.00 0.00 0.00 46 1010.2
20260509215001 79 163 0.0 0.0 0.00 0.00 0.00 44 1010.4
20260509214502 79 162 0.0 0.9 0.00 0.00 0.00 45 1010.4
20260509214000 80 162 0.0 0.9 0.00 0.00 0.00 41 1010.5
20260509213000 80 162 0.9 1.7 0.00 0.00 0.00 41 1010.5
20260509212500 80 162 0.9 1.7 0.00 0.00 0.00 42 1010.4
20260509211501 80 154 0.9 1.7 0.00 0.00 0.00 43 1010.4
20260509211001 81 154 1.7 4.3 0.00 0.00 0.00 41 1010.5
20260509210501 81 154 0.9 4.3 0.00 0.00 0.00 40 1010.5
20260509210004 82 153 0.9 2.6 0.00 0.00 0.00 39 1010.5
20260509205501 82 105 0.9 1.7 0.00 0.00 0.00 41 1010.5
20260509205001 82 51 0.9 1.7 0.00 0.00 0.00 40 1010.5
20260509204501 83 160 0.9 2.6 0.00 0.00 0.00 43 1010.4
20260509203501 82 17 0.0 1.7 0.00 0.00 0.00 41 1010.5
20260509203000 82 122 0.0 1.7 0.00 0.00 0.00 41 1010.4
20260509201501 82 203 0.9 2.6 0.00 0.00 0.00 42 1010.6
20260509201000 82 350 0.9 2.6 0.00 0.00 0.00 47 1010.5
20260509200503 82 347 0.9 2.6 0.00 0.00 0.00 44 1010.7
20260509195501 81 212 0.9 2.6 0.00 0.00 0.00 46 1010.7
20260509195000 81 144 0.9 2.6 0.00 0.00 0.00 45 1010.7
20260509194500 81 219 0.9 2.6 0.00 0.00 0.00 42 1010.6
20260509194000 82 213 0.9 2.6 0.00 0.00 0.00 44 1010.8
20260509193500 82 346 0.9 3.5 0.00 0.00 0.00 48 1010.7
20260509193003 82 346 0.9 3.5 0.00 0.00 0.00 44 1010.7